This is the latest recevied weather packets stored in our database for station/object YD8XVB-13. If no packets are shown the sender has not sent any weather packets the latest 10 day(s).
| Time | Temp. | Humidity | Pressure | Rain* | Wind** | Luminosity | Snow |
|---|---|---|---|---|---|---|---|
| 1777276789 | 31.11° C | 95% | 0 hPa | - | - | 0 W/m² | - |
| 1777275886 | 31.67° C | 95% | 0 hPa | - | - | 0 W/m² | - |
| 1777275285 | 32.22° C | 95% | 0 hPa | - | - | 0 W/m² | - |
| 1777274687 | 32.78° C | 95% | 0 hPa | - | - | 0 W/m² | - |
| 1777274083 | 33.89° C | 95% | 0 hPa | - | - | 0 W/m² | - |
| 1777273482 | 33.33° C | 95% | 0 hPa | - | - | 0 W/m² | - |
| 1777273181 | 33.89° C | 95% | 0 hPa | - | - | 0 W/m² | - |
| 1777272580 | 35.56° C | 95% | 0 hPa | - | - | 0 W/m² | - |
| 1777271980 | 35° C | 95% | 0 hPa | - | - | 0 W/m² | - |
| 1777271380 | 33.89° C | 95% | 0 hPa | - | - | 0 W/m² | - |
| 1777271079 | 35° C | 95% | 0 hPa | - | - | 0 W/m² | - |
| 1777270477 | 35.56° C | 95% | 0 hPa | - | - | 0 W/m² | - |
| 1777269876 | 32.78° C | 95% | 0 hPa | - | - | 0 W/m² | - |
| 1777269275 | 35° C | 95% | 0 hPa | - | - | 0 W/m² | - |
| 1777268975 | 36.11° C | 95% | 0 hPa | - | - | 0 W/m² | - |
| 1777268675 | 35° C | 95% | 0 hPa | - | - | 0 W/m² | - |
| 1777268074 | 36.67° C | 11% | 0 hPa | - | - | 0 W/m² | - |
| 1777267472 | 37.22° C | 27% | 0 hPa | - | - | 0 W/m² | - |
| 1777266872 | 37.78° C | 12% | 0 hPa | - | - | 0 W/m² | - |
| 1777266271 | 37.78° C | 12% | 0 hPa | - | - | 0 W/m² | - |
| 1777265669 | 37.78° C | 12% | 0 hPa | - | - | 0 W/m² | - |
| 1777265069 | 37.78° C | 11% | 0 hPa | - | - | 0 W/m² | - |
| 1777264768 | 36.11° C | 11% | 0 hPa | - | - | 0 W/m² | - |
| 1777264166 | 37.78° C | 12% | 0 hPa | - | - | 0 W/m² | - |
| 1777263565 | 36.11° C | 11% | 0 hPa | - | - | 0 W/m² | - |
* Rain since midnight (hover to see other rain measurements)
** Current wind speed in m/s (hover to see current wind gust speed)